Location: Kunchanapalle
(16.4623°N, 80.6176°E)
Time: 17:15:59
(UTC+00:00)

CREW DRAGON DEMO-1 DEB - Pass Details

Date: 13 August 2020
Orbit: 364 x 370 km, 51.6° (Epoch: 18 September)

Event Time Altitude Azimuth Distance (km) Brightness Sun altitude
Exits shadow 23:37:40 17° 240° (WSW) 1,018 4.4 -10.9°
Maximum altitude 23:39:43 45° 309° (NW) 508 3.2 -10.4°
Drops below altitude 10° 23:42:39 10° 24° (NNE) 1,361 6.3 -9.7°
Sets 23:44:44 0° 31° (NNE) 2,212 7.5 -9.3°
